Regional Weather Roundup
Issued by NWS

Home | Current Version | Previous Version | Text Only | Print | Product List | Glossary Off
Versions: 1 2 3 4 5 6 7 8 9 10 11 12 13 14 15 16 17 18 19 20 21 22 23 24 25 26

000
ASUS45 KTFX 261110
RWRMT
MONTANA REGIONAL WEATHER ROUNDUP
NATIONAL WEATHER SERVICE GREAT FALLS MT
500 AM MDT WED JUL 26 2017

NOTE: "FAIR" INDICATES FEW OR NO CLOUDS BELOW 12000 FEET WITH NO
SIGNIFICANT WEATHER AND/OR OBSTRUCTIONS TO VISIBILITY.

MTZ001>007-043-261200-
WEST OF THE DIVIDE

CITY           SKY/WX    TMP DP  RH WIND       PRES   REMARKS
KALISPELL      PTCLDY    52  44  74 CALM      30.06R
MISSOULA       CLEAR     56  38  50 CALM      30.10R
BUTTE          CLEAR     51  44  77 SE5       30.22S
MULLAN PASS    CLEAR     64  32  30 CALM      30.22S
ANACONDA         N/A     54  34  47 S7        30.18R
DEER LODGE       N/A     50  39  66 W3        30.19R
EUREKA           N/A     50  34  53 MISG      30.08R
HAMILTON         N/A     57  39  51 CALM      30.11R
LIBBY            N/A     48  36  61 CALM      30.06R
PLAINS           N/A     53  40  61 CALM      30.06R
$$

MTZ008-052>055-261200-
SOUTHWEST MONTANA

CITY           SKY/WX    TMP DP  RH WIND       PRES   REMARKS
BOZEMAN        CLOUDY    54  49  83 NW3       30.17R
DILLON         CLOUDY    57  47  69 SW10      30.19R
W YELLOWSTONE  CLOUDY    41  41 100 CALM      30.32S
ENNIS          CLEAR     54  46  76 NE3       30.25R
THREE FORKS      N/A     53  48  83 W1        30.13R
TWIN BRIDGES     N/A     54  45  71 CALM      30.16R
$$

MTZ009-010-012-014-046-048-049-054-261200-
EAST SLOPES AND CENTRAL MONTANA

CITY           SKY/WX    TMP DP  RH WIND       PRES   REMARKS
CUT BANK       CLEAR     47  40  76 N7        30.14S
GREAT FALLS    CLEAR     53  39  59 SW5       30.13R
MALMSTROM AFB  CLEAR     55  41  59 W3        30.12R
HELENA         CLEAR     61  41  47 W3        30.13S
CHOTEAU          N/A     54  37  54 W3        30.16R
CONRAD           N/A     46  43  90 NE1       30.14R
$$

MTZ011-013-016-021-045-047-050-051-261200-
NORTH CENTRAL MONTANA

CITY           SKY/WX    TMP DP  RH WIND       PRES   REMARKS
HAVRE          CLEAR     57  43  59 E12       30.09R
LEWISTOWN      PTCLDY    53  43  68 S5        30.15R
N BAR RANCH    MOCLDY    54  41  62 CALM      30.19S
CHINOOK          N/A     57  45  62 E5        30.11R
$$

MTZ017>020-022>027-061-062-261200-
NORTHEAST MONTANA

CITY           SKY/WX    TMP DP  RH WIND       PRES   REMARKS
GLASGOW        PTCLDY    58  45  62 E10       30.11S
JORDAN           N/A     52  37  56 W3        30.11S
SIDNEY         CLEAR     60  47  61 N7        30.12S
WOLF POINT     CLEAR     56  43  61 E5        30.13R
MALTA          MOCLDY    54  46  76 E5        30.11S
PLENTYWOOD       N/A     57  48  72 CALM      30.14R
POPLAR           N/A     55  45  67 N5        30.13R
SCOBEY           N/A     47  36  65 CALM      30.13R
$$

MTZ028>42-056>058-261200-
SOUTHCENTRAL AND SOUTHEAST MONTANA

CITY           SKY/WX    TMP DP  RH WIND       PRES   REMARKS
BAKER          CLEAR     59  43  55 CALM      30.13R
BILLINGS       PTCLDY    58  47  66 SW5       30.13R
LIVINGSTON     CLEAR     47  42  83 S3        30.18S
MILES CITY     CLEAR     63  39  41 NE7       30.09R
BIG TIMBER     CLEAR     52  45  76 W9        30.20R
EKALAKA          N/A     63  54  72 SE7       30.11S
FORSYTH          N/A     61  41  48 CALM      30.09R
LAUREL           N/A     55  44  66 CALM      30.11F
$$

REGIONAL REPORTS...DAKOTAS

CITY           SKY/WX    TMP DP  RH WIND       PRES   REMARKS
WILLISTON      CLEAR     57  49  74 NE3       30.13R
MINOT          CLEAR     58  54  86 SW5       30.11R
DICKINSON      CLEAR     58  49  72 NE5       30.11R
BEACH          MOCLDY    54  46  76 CALM      30.16R
CROSBY           N/A     52  52 100 S5        30.14R
WATFORD CITY     N/A     50  43  76 CALM      30.13R
BISMARCK       CLEAR     60  55  83 CALM      30.08S
GRAND FORKS    PTCLDY    60  59  96 NW7       29.99S
FARGO          CLOUDY    62  58  86 W3        29.99F
BUFFALO SD       N/A     66  56  70 W5        30.07R
RAPID CITY     CLOUDY    68  52  56 N10       30.12S
$$

REGIONAL REPORTS...WYOMING/IDAHO/WASHINGTON

CITY           SKY/WX    TMP DP  RH WIND       PRES   REMARKS
GILLETTE       CLOUDY    61  60  97 MISG      30.18R
SHERIDAN       PTCLDY    56  54  93 S5        30.17R
BUFFALO WY     CLOUDY    61  53  75 W7        30.21R
CODY           CLEAR     53  50  89 CALM      30.22R
YELLOWSTONE LA   N/A     45  45 100 CALM      30.40S
IDAHO FALLS    PTCLDY    58  55  90 NE5       30.17S
BOISE          PTCLDY    76  52  43 SE8       30.04S
SPOKANE        PTCLDY    65  37  35 CALM      30.02R
$$

REGIONAL REPORTS...ALBERTA

CITY           SKY/WX    TMP DP  RH WIND       PRES   REMARKS
EDMONTON       CLEAR     48  48 100 SW3       30.05S
CALGARY        PTCLDY    55  45  67 S5        30.11S
LETHBRIDGE     CLEAR     46  41  81 SW6       30.11S
MEDICINE HAT   CLEAR     50  45  81 S3        30.10R
WATERTON GATE    N/A     39  37  93 NE2         N/A
CARDSTON         N/A     46  41  81 SW1         N/A
MILK RIVER       N/A     50  43  76 W9          N/A
$$

REGIONAL REPORTS...SASKATCHEWAN

CITY           SKY/WX    TMP DP  RH WIND       PRES   REMARKS
SWIFT CURRENT  CLEAR     54  48  82 S10       30.12S
REGINA         CLEAR     48  48 100 S6        30.13R
SASKATOON      PTCLDY    50  48  93 SW6       30.12R
CYPRESS HILLS    N/A     55  39  54 E2          N/A
VAL MARIE        N/A     45  37  76 E1          N/A
ROCKGLEN         N/A     55  48  76 SE7         N/A
$$




USA.gov is the U.S. government's official web portal to all federal, state and local government web resources and services.